Muskegon, MI

6:26 PM EST on November 21, 2019 (GMT -0500)
Muskegon County

Weather History for KMKG - September, 2019

Change the Weather History Date:

Friday, September 20, 2019

  Actual Average Record
Temperature  
Mean Temperature 72 °F 60 °F  
Max Temperature 83 °F 70 °F 90 °F (2017)
Min Temperature 61 °F 51 °F 33 °F (1956)
Degree Days  
Heating Degree Days 0 6  
Month to date heating degree days 20 67  
Since 1 July heating degree days 24 97  
Cooling Degree Days 7 1  
Month to date cooling degree days 64 47  
Year to date cooling degree days 609 554  
Growing Degree Days 21 (Base 50)    
Moisture  
Dew Point 61 °F    
Average Humidity 72    
Maximum Humidity 87    
Minimum Humidity 56    
Precipitation  
Precipitation 0.00 in 0.14 in 1.88 in (1924)
Month to date precipitation 3.59 2.57  
Year to date precipitation 30.72 23.15  
Snow  
Snow 0.00 in 0.00 in - ()
Month to date snowfall 0.0 0.0  
Since 1 July snowfall 0.0 0.0  
Since 1 September snowfall 0.0 0.0  
Snow Depth 0.00 in    
Sea Level Pressure  
Sea Level Pressure 30.11 in    
Wind  
Wind Speed 3 mph (South)    
Max Wind Speed 10 mph    
Max Gust Speed 14 mph    
Visibility 10 miles    
Events      
T = Trace of Precipitation, MM = Missing Value Source: NWS Daily Summary

Daily Weather History Graph

Daily Weather History Graph

Search for Another Location

Airport or City:

Astronomy

Sep. 20, 2019 Rise Set
Actual Time 7:29 AM EDT 7:46 PM EDT
Civil Twilight 7:01 AM EDT 8:14 PM EDT
Nautical Twilight 6:27 AM EDT 8:48 PM EDT
Astronomical Twilight 5:53 AM EDT 9:22 PM EDT
Moon 11:26 PM EDT (9/20) 1:43 PM EDT (9/20)
Length of Visible Light 13h 13m
Length of Day
12h 16m
Waning Gibbous, 65% of the Moon is Illuminated
Sep 20
Waning Gibbous
Sep 21
Last Quarter
Sep 28
New
Oct 5
First Quarter
Oct 13
Full

Hourly Weather History & Observations

Time (EDT) Temp. Heat Index Dew Point Humidity Pressure Visibility Wind Dir Wind Speed Gust Speed Precip Events Conditions
12:55 AM 69.1 °F - 62.1 °F 78% 30.08 in 10.0 mi ESE 3.5 mph - N/A   Clear
1:55 AM 68.0 °F - 60.1 °F 76% 30.09 in 10.0 mi SE 3.5 mph - N/A   Clear
2:55 AM 68.0 °F - 59.0 °F 73% 30.09 in 10.0 mi Calm Calm - N/A   Mostly Cloudy
3:55 AM 68.0 °F - 59.0 °F 73% 30.09 in 10.0 mi SE 3.5 mph - N/A   Partly Cloudy
4:55 AM 64.9 °F - 57.9 °F 78% 30.10 in 10.0 mi Calm Calm - N/A   Clear
5:55 AM 63.0 °F - 57.9 °F 84% 30.11 in 10.0 mi Calm Calm - N/A   Mostly Cloudy
6:55 AM 62.1 °F - 57.9 °F 86% 30.12 in 10.0 mi Calm Calm - N/A   Scattered Clouds
7:55 AM 62.1 °F - 57.9 °F 86% 30.12 in 10.0 mi East 3.5 mph - N/A   Scattered Clouds
8:55 AM 66.0 °F - 59.0 °F 78% 30.13 in 10.0 mi ESE 4.6 mph - N/A   Mostly Cloudy
9:55 AM 70.0 °F - 61.0 °F 73% 30.14 in 10.0 mi Calm Calm - N/A   Mostly Cloudy
10:55 AM 75.0 °F - 62.1 °F 64% 30.15 in 10.0 mi SW 5.8 mph - N/A   Mostly Cloudy
11:55 AM 77.0 °F - 62.1 °F 60% 30.14 in 10.0 mi SSW 4.6 mph - N/A   Mostly Cloudy
12:55 PM 79.0 °F - 63.0 °F 58% 30.13 in 10.0 mi Variable 4.6 mph - N/A   Mostly Cloudy
1:55 PM 81.0 °F 82.7 °F 64.9 °F 58% 30.11 in 10.0 mi SW 6.9 mph - N/A   Scattered Clouds
2:55 PM 81.0 °F 82.7 °F 64.9 °F 58% 30.10 in 10.0 mi SW 8.1 mph - N/A   Scattered Clouds
3:55 PM 79.0 °F - 64.0 °F 60% 30.10 in 10.0 mi SW 8.1 mph - N/A   Scattered Clouds
4:55 PM 78.1 °F - 63.0 °F 60% 30.10 in 10.0 mi SW 6.9 mph - N/A   Mostly Cloudy
5:55 PM 77.0 °F - 61.0 °F 58% 30.11 in 10.0 mi SW 5.8 mph - N/A   Mostly Cloudy
6:55 PM 73.9 °F - 60.1 °F 62% 30.12 in 10.0 mi Calm Calm - N/A   Mostly Cloudy
7:55 PM 72.0 °F - 61.0 °F 68% 30.11 in 10.0 mi Calm Calm - N/A   Mostly Cloudy
8:55 PM 68.0 °F - 62.1 °F 81% 30.12 in 10.0 mi Calm Calm - N/A   Mostly Cloudy
9:55 PM 68.0 °F - 62.1 °F 81% 30.12 in 10.0 mi Calm Calm - N/A   Mostly Cloudy
10:55 PM 66.9 °F - 62.1 °F 84% 30.12 in 10.0 mi Calm Calm - N/A   Scattered Clouds
11:55 PM 64.9 °F - 61.0 °F 87% 30.12 in 6.0 mi Calm Calm - N/A   Scattered Clouds